[[{"header":{"parameterUnit":"m.s-1","parameterCategory":1,"la1":30.2991,"la2":30.254,"lo1":-89.0895,"lo2":-89.0444,"dy":0.0017,"dx":0.0017,"nx":28,"ny":28,"refTime":"2025-03-16T03:00:00:Z","depth":0,"parameterNumber":2,"parameterNumberName":"U-component_of_WINDS"},"data":[0,0,0,0,0,0,0,0,0,0,0,0,0,0,0,0,0,0,0,0,0,0,0,0,0,0,0,0,0,0,0,0,0,0,0,0,0,0,0,0,0,0,0,0,0,0,0,0,0,0,0,0,0,0,0,0,0,0,-0.1892,-0.1892,0,-0.192,-0.1921,-0.1921,-0.1907,-0.1906,-0.1906,-0.1905,-0.1934,-0.1935,-0.1937,0,0,0,0,0,0,0,0,0,0,0,0,0,-0.1826,-0.1827,-0.1892,-0.1892,-0.1893,-0.192,-0.1921,-0.1921,-0.1907,-0.1906,-0.1905,-0.1905,-0.1934,-0.1935,-0.1937,0,0,0,0,0,0,0,0,0,0,0,0,0,-0.1855,-0.1828,-0.1892,-0.1889,-0.1889,-0.192,-0.1921,-0.1921,-0.1907,-0.1906,-0.1905,-0.1904,-0.1933,-0.1935,-0.1937,-0.1973,0,0,-0.1944,-0.1945,0,0,0,0,0,0,0,0,-0.1853,-0.1857,-0.1889,-0.1889,-0.1889,-0.1909,-0.1908,-0.1939,-0.1908,-0.19,-0.1905,-0.1904,-0.1927,-0.1929,-0.1937,-0.1974,-0.1976,-0.1944,-0.1946,-0.1946,-0.1947,0,0,0,0,0,0,0,-0.1851,-0.1856,-0.1903,-0.189,-0.189,-0.1886,-0.1889,-0.1914,-0.1919,-0.1901,-0.19,-0.1904,-0.1927,-0.1935,-0.1938,-0.1976,-0.1944,-0.1946,-0.1947,-0.1948,-0.2044,-0.2045,0,0,0,0,0,0,-0.1849,-0.1854,-0.1902,-0.1904,-0.1868,-0.1889,-0.1892,-0.1904,-0.1919,-0.192,-0.1905,-0.1903,-0.1932,-0.1935,-0.1939,-0.1982,-0.1946,-0.1949,-0.195,-0.2043,-0.2044,-0.2046,0,0,0,0,0,0,-0.1848,-0.1854,-0.1901,-0.1879,-0.1885,-0.1891,-0.1905,-0.1905,-0.1913,-0.1922,-0.1923,-0.1912,-0.1931,-0.1936,-0.1965,-0.1982,-0.1949,-0.1951,-0.2041,-0.2043,-0.2045,-0.2068,0,0,0,0,0,0,-0.1846,-0.1853,-0.1867,-0.1879,-0.1886,-0.1927,-0.1906,-0.1906,-0.1917,-0.1915,-0.1929,-0.193,-0.193,-0.1961,-0.1967,-0.1985,-0.1953,-0.204,-0.2042,-0.2044,-0.2065,-0.207,-0.2074,0,0,0,0,0,-0.1844,-0.1872,-0.1867,-0.1873,-0.1903,-0.1928,-0.1932,-0.1931,-0.1919,-0.1933,-0.1938,-0.193,-0.1979,-0.1964,-0.197,-0.1989,-0.2039,-0.2041,-0.2044,-0.2063,-0.2069,-0.2074,0,0,0,0,0,0,-0.1861,-0.1874,-0.1869,-0.1902,-0.1914,-0.1925,-0.1943,-0.1937,-0.1953,-0.1951,-0.1949,-0.1952,-0.1983,-0.1989,-0.1972,-0.2025,-0.2007,-0.2011,-0.202,-0.2025,-0.203,-0.2028,-0.1955,0,0,0,0,0,-0.1869,-0.1888,-0.1898,-0.1926,-0.1933,-0.1937,-0.1947,-0.1946,-0.1958,-0.1963,-0.1971,-0.1983,-0.2001,-0.2014,-0.2031,-0.2066,-0.2069,-0.2082,-0.2086,-0.209,-0.2094,-0.2113,-0.2119,-0.2055,-0.2055,-0.2055,0,0,-0.1886,-0.1895,-0.1907,-0.193,-0.1939,-0.1959,-0.1941,-0.1963,-0.1978,-0.1967,-0.1995,-0.2,-0.2014,-0.2046,-0.2061,-0.2052,-0.2112,-0.2093,-0.2096,-0.2098,-0.2116,-0.2122,-0.2128,-0.2056,-0.2056,-0.2056,0,0,-0.1926,-0.1934,-0.1959,-0.1969,-0.1983,-0.1985,-0.1991,-0.2003,-0.2007,-0.2035,-0.2027,-0.2044,-0.2076,-0.2086,-0.2095,-0.2139,-0.2133,-0.2145,-0.2168,-0.2186,-0.2192,-0.2196,-0.2212,-0.2218,-0.2148,-0.2148,-0.2148,0,-0.1945,-0.1974,-0.1973,-0.1995,-0.2006,-0.1997,-0.2022,-0.2031,-0.205,-0.2058,-0.2048,-0.2087,-0.2095,-0.213,-0.2141,-0.2148,-0.2155,-0.2144,-0.2191,-0.2195,-0.22,-0.2215,-0.2221,-0.215,-0.215,-0.2149,-0.2149,0,-0.1997,-0.2017,-0.2036,-0.2054,-0.2067,-0.2091,-0.2093,-0.2106,-0.2103,-0.2107,-0.2135,-0.2145,-0.2164,-0.2172,-0.217,-0.2206,-0.2201,-0.2191,-0.2173,-0.2207,-0.2221,-0.2227,-0.2152,-0.2151,-0.2151,-0.2151,0,0,-0.2049,-0.2067,-0.2074,-0.2082,-0.2097,-0.2113,-0.2136,-0.2155,-0.2166,-0.2179,-0.2199,-0.2225,-0.2216,-0.2227,-0.2225,-0.2242,-0.2276,-0.223,-0.223,-0.2239,-0.2318,-0.2325,-0.2332,-0.2272,-0.2273,-0.2274,-0.2317,0,-0.2091,-0.2132,-0.2131,-0.2169,-0.2188,-0.218,-0.22,-0.2211,-0.2215,-0.2232,-0.2236,-0.2255,-0.2241,-0.2248,-0.2264,-0.2269,-0.2292,-0.2265,-0.229,-0.2291,-0.2288,-0.2339,-0.2348,-0.2388,-0.2322,-0.2323,-0.2324,0,-0.2145,-0.216,-0.22,-0.2212,-0.222,-0.2239,-0.2256,-0.2272,-0.2284,-0.2286,-0.2297,-0.2293,-0.2317,-0.2298,-0.2331,-0.2313,-0.2322,-0.2326,-0.2328,-0.2331,-0.231,-0.2344,-0.2401,-0.2407,-0.2332,-0.2332,-0.2331,0,-0.218,-0.2211,-0.2239,-0.2246,-0.226,-0.2274,-0.228,-0.2291,-0.2303,-0.2318,-0.2325,-0.2342,-0.2352,-0.2365,-0.2366,-0.2352,-0.2399,-0.238,-0.2401,-0.2401,-0.2412,-0.2411,-0.2471,-0.2417,-0.2417,-0.2417,-0.2417,0,-0.2227,-0.2252,-0.2255,-0.2272,-0.23,-0.2298,-0.2326,-0.2331,-0.2341,-0.2359,-0.2352,-0.2369,-0.2369,-0.2386,-0.2387,-0.2414,-0.2418,-0.242,-0.242,-0.2421,-0.2421,-0.2428,-0.2425,-0.2419,-0.2418,-0.2418,-0.2418,0,-0.2272,-0.2274,-0.2304,-0.2315,-0.2319,-0.2339,-0.2348,-0.2364,-0.2367,-0.239,-0.2396,-0.24,-0.242,-0.2422,-0.2445,-0.2446,-0.2478,-0.2475,-0.2474,-0.2474,-0.2495,-0.2493,-0.2562,-0.2571,-0.2511,-0.2511,-0.2512,0,-0.2302,-0.2321,-0.2334,-0.2346,-0.2353,-0.2372,-0.2383,-0.2383,-0.2395,-0.241,-0.2425,-0.2444,-0.246,-0.2492,-0.2498,-0.2515,-0.2513,-0.2535,-0.2515,-0.2516,-0.2513,-0.2512,-0.2514,-0.254,-0.254,-0.2541,-0.2541,0,-0.2355,-0.2355,-0.2372,-0.239,-0.2404,-0.2417,-0.243,-0.244,-0.2441,-0.2455,-0.2475,-0.2487,-0.2511,-0.253,-0.2548,-0.2554,-0.2548,-0.2547,-0.2553,-0.2555,-0.2554,-0.2555,-0.2486,-0.2546,-0.2546,-0.2545,-0.2545,-0.2545,-0.2394,-0.241,-0.2422,-0.2441,-0.2451,-0.2463,-0.2479,-0.2484,-0.2501,-0.252,-0.2518,-0.2541,-0.2553,-0.2575,-0.2583,-0.2601,-0.2593,-0.2601,-0.2604,-0.2606,-0.2608,-0.2551,-0.2604,-0.2604,-0.2603,-0.2603,-0.2603,0,-0.2447,-0.2454,-0.2472,-0.249,-0.2505,-0.2498,-0.2511,-0.2524,-0.2544,-0.2556,-0.2571,-0.2595,-0.2613,-0.262,-0.2638,-0.2651,-0.2648,-0.2656,-0.2655,-0.2656,-0.2614,-0.2607,-0.2657,-0.2657,-0.2657,-0.2657,-0.2657,-0.2657,-0.2477,-0.2504,-0.2506,-0.2538,-0.2545,-0.2568,-0.2576,-0.2587,-0.2596,-0.2623,-0.2638,-0.2642,-0.2652,-0.2671,-0.2687,-0.2689,-0.2696,-0.2704,-0.2705,-0.2665,-0.2659,-0.2654,-0.2648,-0.2706,-0.2706,-0.2746,-0.2746,-0.2747]},{"header":{"parameterUnit":"m.s-1","parameterCategory":1,"la1":30.2991,"la2":30.254,"lo1":-89.0895,"lo2":-89.0444,"dy":0.0017,"dx":0.0017,"nx":28,"ny":28,"refTime":"2025-03-16T03:00:00:Z","depth":0,"parameterNumber":3,"parameterNumberName":"V-component_of_WINDS"},"data":[0,0,0,0,0,0,0,0,0,0,0,0,0,0,0,0,0,0,0,0,0,0,0,0,0,0,0,0,0,0,0,0,0,0,0,0,0,0,0,0,0,0,0,0,0,0,0,0,0,0,0,0,0,0,0,0,0,0,-2.6442,-2.6444,0,-2.6606,-2.6607,-2.6609,-2.6611,-2.6608,-2.6606,-2.6604,-2.677,-2.6776,-2.6783,0,0,0,0,0,0,0,0,0,0,0,0,0,-2.6129,-2.6135,-2.6442,-2.6444,-2.6446,-2.6605,-2.6608,-2.661,-2.6611,-2.6608,-2.6606,-2.6603,-2.6768,-2.6776,-2.6783,0,0,0,0,0,0,0,0,0,0,0,0,0,-2.6276,-2.6137,-2.6441,-2.6466,-2.647,-2.6605,-2.6608,-2.661,-2.6611,-2.6608,-2.6605,-2.6602,-2.6766,-2.6775,-2.6784,-2.6906,0,0,-2.6813,-2.6818,0,0,0,0,0,0,0,0,-2.6268,-2.6287,-2.646,-2.6464,-2.6469,-2.6585,-2.6558,-2.6709,-2.6612,-2.6558,-2.6604,-2.6601,-2.6711,-2.6725,-2.6762,-2.6913,-2.6921,-2.6814,-2.682,-2.6824,-2.6827,0,0,0,0,0,0,0,-2.6257,-2.628,-2.6506,-2.6463,-2.6468,-2.6468,-2.6485,-2.6587,-2.665,-2.6562,-2.6563,-2.6582,-2.6713,-2.6753,-2.6766,-2.6923,-2.6814,-2.6822,-2.6828,-2.6832,-2.7183,-2.7187,0,0,0,0,0,0,-2.6243,-2.6272,-2.6501,-2.6511,-2.6359,-2.6476,-2.6496,-2.655,-2.6649,-2.6661,-2.6585,-2.6581,-2.6738,-2.6755,-2.6772,-2.6922,-2.6824,-2.6833,-2.6838,-2.718,-2.7184,-2.7188,0,0,0,0,0,0,-2.6236,-2.6263,-2.6495,-2.6392,-2.6421,-2.6485,-2.6546,-2.6555,-2.6596,-2.6666,-2.6677,-2.6614,-2.6736,-2.6758,-2.6873,-2.6927,-2.6837,-2.6846,-2.7175,-2.7181,-2.7186,-2.7221,0,0,0,0,0,0,-2.6227,-2.6261,-2.6308,-2.6393,-2.6427,-2.6593,-2.655,-2.6561,-2.6612,-2.661,-2.6696,-2.6708,-2.6736,-2.6859,-2.6882,-2.6939,-2.6853,-2.7171,-2.7178,-2.7184,-2.7215,-2.7227,-2.7237,0,0,0,0,0,-2.6216,-2.631,-2.631,-2.6338,-2.6487,-2.6597,-2.6616,-2.6647,-2.6617,-2.6665,-2.671,-2.6705,-2.6917,-2.687,-2.6897,-2.6957,-2.7168,-2.7176,-2.7184,-2.7211,-2.7225,-2.7237,0,0,0,0,0,0,-2.6229,-2.6322,-2.6323,-2.6448,-2.6514,-2.6597,-2.6658,-2.666,-2.6736,-2.6731,-2.6765,-2.6785,-2.6899,-2.6939,-2.6885,-2.708,-2.7039,-2.7053,-2.705,-2.7064,-2.7075,-2.7063,-2.6861,0,0,0,0,0,-2.6246,-2.6328,-2.6404,-2.6507,-2.6541,-2.6594,-2.6642,-2.666,-2.6731,-2.6758,-2.6812,-2.6879,-2.6962,-2.7015,-2.7094,-2.7221,-2.724,-2.7276,-2.7286,-2.7295,-2.7307,-2.7378,-2.7395,-2.7215,-2.7215,-2.7214,0,0,-2.6283,-2.6344,-2.6393,-2.6512,-2.6565,-2.6649,-2.6617,-2.6707,-2.6769,-2.6772,-2.6884,-2.6925,-2.7003,-2.7125,-2.7181,-2.7162,-2.7361,-2.7305,-2.7312,-2.7319,-2.7388,-2.7405,-2.742,-2.722,-2.7219,-2.7218,0,0,-2.6393,-2.6447,-2.654,-2.6594,-2.6677,-2.6711,-2.6733,-2.6816,-2.6844,-2.6957,-2.6961,-2.7035,-2.7175,-2.7231,-2.7278,-2.741,-2.7409,-2.7435,-2.7492,-2.7561,-2.7575,-2.7588,-2.7636,-2.7653,-2.7446,-2.7446,-2.7447,0,-2.6428,-2.6555,-2.6586,-2.6677,-2.6729,-2.6736,-2.683,-2.6882,-2.6985,-2.7021,-2.6998,-2.7176,-2.7229,-2.7364,-2.7396,-2.7433,-2.746,-2.7426,-2.7571,-2.7584,-2.7596,-2.7642,-2.766,-2.7449,-2.7449,-2.7449,-2.7448,0,-2.6595,-2.6683,-2.6747,-2.6849,-2.6908,-2.7,-2.7045,-2.7101,-2.7114,-2.7151,-2.7266,-2.733,-2.7423,-2.7456,-2.7469,-2.7594,-2.7579,-2.7563,-2.7522,-2.7615,-2.766,-2.7678,-2.7453,-2.7452,-2.7451,-2.7451,0,0,-2.6718,-2.6836,-2.6859,-2.6906,-2.6997,-2.7066,-2.7158,-2.725,-2.7298,-2.7369,-2.7447,-2.7566,-2.7552,-2.7605,-2.7625,-2.7685,-2.7787,-2.7662,-2.7664,-2.7684,-2.793,-2.7942,-2.7962,-2.7787,-2.779,-2.7793,-2.7923,0,-2.6839,-2.7003,-2.7035,-2.7178,-2.726,-2.7268,-2.7348,-2.7413,-2.745,-2.7525,-2.7565,-2.765,-2.7624,-2.7657,-2.7717,-2.7762,-2.7837,-2.7753,-2.786,-2.7864,-2.7842,-2.7985,-2.7998,-2.8118,-2.7941,-2.7944,-2.7946,0,-2.7002,-2.7078,-2.723,-2.7312,-2.7347,-2.7419,-2.7506,-2.7577,-2.7651,-2.7674,-2.7734,-2.7746,-2.7842,-2.7797,-2.7929,-2.7871,-2.7917,-2.7946,-2.7951,-2.7963,-2.7911,-2.8001,-2.8157,-2.8175,-2.7973,-2.7971,-2.7969,0,-2.7077,-2.7218,-2.7328,-2.7367,-2.7465,-2.7515,-2.7558,-2.7629,-2.7682,-2.7758,-2.7794,-2.7879,-2.7926,-2.7992,-2.8028,-2.7991,-2.8159,-2.8115,-2.818,-2.818,-2.8216,-2.8213,-2.8382,-2.8244,-2.8243,-2.8243,-2.8243,0,-2.721,-2.7302,-2.7363,-2.7431,-2.7535,-2.757,-2.7672,-2.7714,-2.7777,-2.7853,-2.7864,-2.7935,-2.7977,-2.8054,-2.8082,-2.8189,-2.8209,-2.8231,-2.8237,-2.823,-2.8228,-2.8261,-2.8254,-2.8248,-2.8247,-2.8246,-2.8245,0,-2.7312,-2.7357,-2.7477,-2.756,-2.7583,-2.7656,-2.7727,-2.7793,-2.783,-2.7926,-2.795,-2.8008,-2.8099,-2.8141,-2.8253,-2.8272,-2.8394,-2.8394,-2.8369,-2.8372,-2.8435,-2.8429,-2.8632,-2.866,-2.8502,-2.8504,-2.8505,0,-2.7394,-2.7466,-2.7557,-2.7609,-2.7654,-2.7737,-2.7792,-2.7829,-2.7886,-2.7976,-2.8031,-2.8123,-2.8198,-2.8343,-2.8395,-2.8481,-2.8484,-2.8549,-2.8497,-2.8488,-2.8486,-2.8482,-2.849,-2.8559,-2.856,-2.8562,-2.8563,0,-2.7535,-2.7554,-2.7633,-2.7721,-2.7787,-2.7857,-2.7926,-2.7968,-2.8016,-2.8079,-2.8173,-2.8232,-2.8347,-2.8438,-2.8528,-2.8571,-2.8576,-2.8579,-2.8598,-2.8593,-2.8576,-2.8587,-2.8396,-2.8574,-2.8573,-2.8572,-2.8571,-2.8571,-2.7631,-2.7695,-2.777,-2.7859,-2.7915,-2.7979,-2.8046,-2.8092,-2.8171,-2.8268,-2.8285,-2.8385,-2.8457,-2.8579,-2.8626,-2.8704,-2.8689,-2.8717,-2.8725,-2.8731,-2.8736,-2.8563,-2.872,-2.872,-2.872,-2.872,-2.8719,0,-2.7773,-2.7822,-2.7903,-2.8,-2.807,-2.8068,-2.8145,-2.8203,-2.8291,-2.8359,-2.8433,-2.8542,-2.863,-2.8689,-2.8779,-2.8831,-2.8835,-2.8853,-2.885,-2.886,-2.8744,-2.8718,-2.8848,-2.8848,-2.8848,-2.8848,-2.8848,-2.8848,-2.7856,-2.7966,-2.7994,-2.8131,-2.8179,-2.8278,-2.8323,-2.8382,-2.8437,-2.8557,-2.8631,-2.867,-2.8734,-2.8829,-2.891,-2.8925,-2.8958,-2.8977,-2.8992,-2.8882,-2.8868,-2.8855,-2.8832,-2.8984,-2.8984,-2.9102,-2.9103,-2.9104]}]]